Regional Weather Roundup
Issued by NWS Midland/Odessa, TX

Skip options and go directly to product.
Home | Oldest Version | Next Version | Current Version | All | Text Only | Save Text | Print | Product List | Glossary On

Skip product version selection by date and time.   
438
ASUS44 KMAF 170802
RWRMAF
MIDLAND AREA WEATHER ROUNDUP
NATIONAL WEATHER SERVICE MIDLAND TX
300 AM CDT THU APR 17 2014

...IN SOUTHWEST TEXAS AND SOUTHEAST NEW MEXICO...

CITY           SKY/WX    TMP DP  RH WIND       PRES   REMARKS
ALPINE         CLEAR     60  17  19 S6        29.94S
ANDREWS        FAIR      54  37  52 S12       29.82S
ARTESIA        CLOUDY    59  27  29 N26G38    29.89R
BIG SPRING     CLEAR     59  37  44 SE21G28   29.85F
CARLSBAD       LGT RAIN  62  26  25 NW30G40   29.83R
DRYDEN           N/A     57  42  57 NE6       29.85R
FORT STOCKTON  CLEAR     57  38  48 SE20      29.84R
GUAD PASS      PTCLDY    62   1   8 W12G21    29.93R
HOBBS          CLEAR     50  32  50 S9        29.84R
MARFA          PTCLDY    45  10  24 N9        29.95R WCI  40
MIDLAND AIRPK  CLEAR     58  39  48 S16G24    29.82F
MIDLAND INTL   CLEAR     57  40  52 S15       29.82S
ODESSA         CLEAR     57  38  48 S12       29.82F
PECOS          CLEAR     54  33  45 CALM      29.78R
PRESIDIO       FAIR      66  20  17 N9        29.83R
SEMINOLE       CLEAR     51  34  52 SE6       29.84S
SNYDER         CLEAR     57  37  47 SE13      29.86F
WINK           PTCLDY    57  39  51 SE14      29.78S
$$
...OTHER STATIONS IN TEXAS...

CITY           SKY/WX    TMP DP  RH WIND       PRES   REMARKS
ABILENE        CLEAR     55  44  66 SE16      29.89S
AMARILLO       PTCLDY    50  30  46 NE20      29.98S
AUSTIN         CLOUDY    55  50  83 SE5       30.00S
BROWNSVILLE    CLOUDY    64  60  87 CALM      29.94F
CORPUS CHRISTI CLOUDY    67  59  75 SE9       29.96F
DALLAS FTW     CLEAR     52  42  69 SE8       30.05R
DEL RIO        MOCLDY    62  51  67 E14       29.89S
EL PASO        CLOUDY    67   1   7 W14       29.87S
HOUSTON INT    CLOUDY    54  52  93 E5        30.06R
LUBBOCK        MOCLDY    56  34  43 SE8       29.90R
SAN ANGELO     CLEAR     52  37  56 SE6       29.88S
SAN ANTONIO    CLOUDY    58  51  78 SE9       29.98F
WACO           PTCLDY    53  48  83 SE13      30.02S
WICHITA FALLS  NOT AVBL
$$
...OTHER LOCATIONS IN NEW MEXICO...

CITY           SKY/WX    TMP DP  RH WIND       PRES   REMARKS
ALAMAGORDO     MOCLDY    68  10  10 NE12      29.85S
ALBUQUERQUE    MOCLDY    56  26  31 E9        30.00S
CANNON AFB     CLEAR     49  27  41 N24G37    29.93R
CLOVIS         PTCLDY    48  27  43 N23G29    29.95R
HOLLOMAN AFB   MOCLDY    63  11  13 NW6       29.85R
ROSWELL        MOCLDY    58  26  29 N25G35    29.91R
RUIDOSO        MOCLDY    46  21  36 CALM      30.06R
SANTA FE       PTCLDY    43  32  65 S7        30.03R WCI  39
TRUTH OR CONSE CLEAR     59   5  11 NW7       29.93R
TUCUMCARI      PTCLDY    49  30  48 NE20G33   30.02R
$$

USA.gov is the U.S. government's official web portal to all federal, state and local government web resources and services.